Presure
237 271 218 190 179 186 183 187 200 218 209 206 203 199 188 165 76 90 98 161 189 193 80 154 142 144 229 221 125 201 173 180 179 189 164 175 169 168 144 178 145 136 99 103
238 276 215 194 155 186 181 176 196 196 192 196 203 196 192 97 190 142 191 188 90 108 185 197 210 229 216 159 207 199 163 186 192 191 177 181 171 132 113 162 131 106 142 82
177 228 211 195 188 186 170 172 199 200 202 195 197 197 186 189 189 193 138 119 97 181 193 184 197 234 219 214 174 135 181 166 189 189 166 178 175 162 110 121 144 166 169 168
121 102 208 193 190 185 183 182 195 103 194 191 196 191 188 135 183 180 182 186 178 179 106 195 163 202 198 205 206 212 193 125 183 141 146 108 124 175 162 156 161 162 166 171
232 245 93 199 188 185 183 191 185 191 190 196 104 98 104 184 179 182 191 171 190 175 170 176 178 194 203 209 197 202 107 192 165 109 104 128 148 173 164 159 99 152 126 165
268 219 205 126 190 184 191 168 188 193 187 197 191 192 183 177 177 175 182 179 132 188 184 188 188 188 201 180 96 210 207 164 193 181 178 129 145 166 126 152 164 170 161 172
253 220 202 197 194 159 188 171 162 189 187 190 192 187 175 179 175 173 178 166 169 94 143 173 176 184 186 192 194 156 198 205 197 195 196 169 176 177 140 144 152 148 151 160
220 214 205 194 189 185 198 173 189 164 186 182 191 184 174 109 175 187 193 170 120 167 174 134 172 182 175 186 186 191 191 197 200 201 202 203 201 200 175 144 197 198 204 210
227 76 96 196 191 140 165 165 87 145 97 183 185 184 192 181 177 172 97 160 96 179 171 164 180 171 180 182 145 167 186 191 192 190 185 192 187 188 193 198 184 140 198 201
198 210 198 191 197 188 179 184 183 171 180 187 176 182 186 174 168 136 189 188 144 164 173 170 159 187 167 168 168 183 190 190 185 185 183 184 188 186 190 148 183 186 180 172
216 208 197 197 194 161 179 178 174 135 180 174 175 182 178 151 156 94 145 194 165 162 162 169 165 169 158 165 169 183 188 183 181 181 185 191 185 186 185 174 158 149 191 195
208 201 201 196 191 186 191 189 189 181 178 181 173 177 179 169 187 158 169 170 195 173 160 191 179 180 160 172 181 161 179 170 160 175 173 173 179 181 147 187 181 183 224 227
196 197 198 195 200 186 193 181 177 182 178 179 178 180 185 177 166 184 182 176 172 184 179 171 196 180 155 162 180 171 177 171 168 194 188 125 185 181 145 205 201 226 211 104
209 204 202 199 188 148 158 181 165 175 175 185 182 186 187 184 171 168 185 184 181 177 174 168 180 178 179 173 165 190 186 192 184 180 142 184 167 199 210 209 187 197 130 148
208 205 201 201 199 197 188 177 179 182 182 184 189 190 186 190 182 182 175 175 181 189 178 184 181 182 189 182 191 191 192 193 191 153 180 167 159 205 222 225 231 215 204 213
210 203 201 204 196 201 196 183 175 167 177 131 168 187 195 185 176 173 181 178 176 173 185 189 177 173 171 175 175 187 192 190 128 131 201 210 209 229 229 206 207 215 173 131
249 207 204 200 200 196 195 191 180 179 162 161 162 163 178 159 171 172 179 178 186 178 162 170 178 185 192 191 184 159 131 190 205 200 214 228 226 202 220 215 212 125 131 208
326 319 219 207 199 194 192 154 190 188 185 178 169 178 174 169 171 172 182 184 180 178 187 192 191 161 184 150 157 142 151 206 205 234 195 205 225 217 215 140 126 215 217 186
206 283 309 221 215 204 209 208 204 197 195 191 188 189 188 188 177 174 183 181 183 179 191 189 180 185 137 139 172 206 145 201 223 237 224 217 156 123 125 197 214 180 192 185
296 244 199 201 239 210 167 207 207 208 205 201 199 197 195 193 192 187 186 190 188 190 189 136 137 193 198 204 203 213 245 236 210 215 203 125 120 137 213 195 176 202 196 128
243 244 244 257 194 195 195 265 265 261 258 260 256 252 247 217 209 140 196 178 206 185 133 174 192 203 200 210 179 231 217 203 191 227 121 120 157 205 179 203 179 175 176 209
209 220 223 232 229 232 200 245 237 244 240 243 182 134 137 181 131 184 177 163 134 135 142 208 203 231 206 231 207 211 170 170 224 205 145 210 183 202 195 133 170 208 199 210
186 185 188 204 211 215 221 224 215 212 139 222 181 174 217 201 132 145 192 186 197 202 210 251 232 167 216 218 232 148 210 193 206 204 196 209 132 193 177 134 201 187 212 219
193 193 192 193 190 184 185 186 190 158 193 129 198 132 196 154 197 197 208 244 236 236 229 220 221 226 215 134 217 245 160 192 200 189 190 181 193 188 188 196 188 170 217 221
228 228 198 235 238 240 241 196 202 213 213 216 244 176 174 234 230 228 130 213 221 226 227 227 204 131 149 257 186 198 223 196 188 180 163 180 157 183 193 189 194 192 223 233
223 225 229 226 227 227 233 234 231 231 233 228 223 223 225 224 225 226 229 230 231 227 231 207 167 193 207 214 224 208 190 187 162 125 154 187 187 192 206 198 214 218 218 304
Wind_Speed
102 103 96 73 66 72 64 64 58 53 51 51 52 40 53 41 21 39 49 41 34 33 27 36 41 40 25 30 42 36 39 42 42 40 45 43 44 43 48 42 50 49 37 42
100 99 93 86 61 74 67 57 58 51 53 55 49 45 50 33 41 48 36 36 36 43 38 33 27 24 30 41 32 38 42 45 42 41 44 43 45 42 37 44 46 41 45 38
59 79 92 84 80 73 57 54 58 53 55 57 48 43 47 43 40 37 32 33 47 37 34 38 33 23 25 25 39 47 45 44 45 45 46 45 45 44 37 42 56 49 50 51
25 25 90 82 80 71 67 60 56 47 57 54 46 42 44 46 40 40 36 37 39 35 29 32 35 25 30 32 32 30 44 43 51 49 42 38 41 49 51 55 53 53 55 56
83 95 30 86 79 71 68 64 52 53 56 53 47 49 49 42 41 40 36 40 33 40 40 40 39 31 27 30 36 39 35 48 49 37 40 47 53 54 54 55 42 58 53 60
97 92 88 44 80 70 70 47 54 57 56 51 44 43 39 43 43 42 40 39 31 35 35 33 33 35 28 36 38 33 38 40 52 55 56 52 56 58 51 57 61 64 63 66
98 92 88 86 82 58 66 44 43 55 51 49 44 45 41 47 45 44 43 42 43 23 34 41 37 39 36 34 36 38 39 39 50 56 58 60 61 64 57 60 63 62 65 67
84 90 91 81 74 64 62 45 52 49 55 49 46 49 42 36 48 45 48 46 30 46 46 40 39 39 42 41 43 41 44 44 45 47 49 51 54 57 59 62 66 67 65 67
91 16 20 77 71 47 44 44 17 43 25 52 49 51 46 51 48 50 35 42 29 44 45 37 39 42 41 43 44 48 50 48 49 53 59 57 62 65 66 66 65 54 69 71
60 85 73 65 70 59 51 56 54 47 54 55 45 51 50 53 52 46 43 49 42 45 46 48 42 41 47 49 50 52 52 52 55 57 60 62 65 67 68 55 70 72 70 69
74 75 71 72 67 46 52 48 47 36 56 51 48 55 54 47 42 31 48 42 54 51 48 53 52 52 47 54 54 54 54 56 58 60 62 62 65 69 70 71 60 59 79 81
69 69 72 70 66 57 58 56 56 53 53 58 55 52 60 55 51 42 58 49 41 58 53 50 58 57 53 60 59 49 59 57 53 64 67 68 71 71 50 74 79 82 84 87
62 63 67 65 63 45 55 52 54 60 58 56 56 60 57 60 57 44 45 57 59 49 54 56 50 60 43 54 60 63 64 63 64 61 69 56 77 77 58 80 82 85 81 49
69 67 68 66 68 33 35 62 46 53 49 58 59 62 57 48 54 61 49 49 56 56 60 61 59 58 63 58 62 63 65 64 72 71 59 74 70 78 82 81 73 76 59 62
63 64 64 66 65 64 62 53 51 55 55 55 56 55 55 52 53 54 61 60 53 51 60 60 63 64 61 68 64 64 63 65 69 51 70 66 63 83 83 83 85 82 84 90
63 65 65 68 59 62 64 59 52 46 46 18 45 64 60 54 54 56 56 57 59 63 58 60 66 70 68 71 69 64 68 70 53 56 81 83 83 80 82 78 81 85 75 65
65 62 63 60 60 56 56 61 59 55 47 47 48 46 52 42 54 56 56 58 59 63 58 64 66 66 66 65 69 66 50 76 83 80 81 77 75 76 80 81 83 61 67 89
28 36 68 62 57 55 61 45 62 64 61 59 58 57 55 54 56 57 59 62 63 65 65 62 64 49 68 57 56 43 53 83 83 73 70 74 78 78 80 62 62 86 88 89
45 38 31 68 67 59 61 62 62 62 63 64 67 66 61 61 55 57 65 64 65 65 65 66 68 69 42 45 65 81 56 81 84 74 74 74 60 54 60 78 84 87 95 93
25 44 49 50 44 46 41 60 61 63 65 66 67 69 67 66 67 65 65 68 68 67 69 39 43 74 77 80 81 83 67 69 71 73 72 52 54 63 79 84 90 95 99 67
30 33 36 37 51 52 50 46 48 52 58 59 63 65 66 70 70 36 68 55 72 62 42 65 74 77 78 80 65 70 68 71 65 74 52 55 65 79 88 89 86 89 92 107
37 36 37 34 38 38 52 37 44 40 44 46 32 26 26 42 35 52 57 49 40 43 43 75 76 67 52 62 64 70 56 58 71 71 61 75 84 81 91 68 86 105 100 114
47 46 44 43 42 41 40 40 46 41 30 48 41 34 56 61 35 38 67 67 72 74 73 55 53 56 61 64 69 53 66 65 70 73 78 79 61 91 85 74 103 93 114 118
50 49 49 50 52 52 51 52 52 42 56 34 58 32 62 45 66 68 66 48 51 52 53 56 58 61 62 48 67 72 62 70 74 80 83 86 91 92 93 103 97 88 119 124
32 33 33 28 31 33 35 54 52 48 50 50 36 36 37 40 43 45 37 47 51 52 55 57 55 46 50 69 63 69 70 74 79 82 76 86 81 90 102 102 108 104 127 131
34 33 33 34 33 33 32 34 37 37 38 38 41 42 42 45 46 47 49 50 51 53 56 53 50 55 61 63 66 68 75 79 73 57 77 93 94 101 108 107 120 125 125 139
Wind_Direction
206 201 206 213 216 220 221 224 219 207 210 216 221 209 232 233 238 255 255 256 259 262 264 274 260 263 255 256 276 251 262 260 262 259 270 268 272 275 279 276 283 295 290 293
203 196 199 207 214 216 219 219 217 215 220 218 216 207 226 246 237 246 246 254 262 265 271 274 279 257 264 263 256 251 265 259 256 255 263 266 268 286 285 279 295 289 286 293
195 196 197 205 211 214 218 216 213 208 207 217 214 204 226 232 237 240 248 262 265 265 264 272 275 272 254 258 263 271 259 265 257 258 266 264 265 272 288 297 286 282 284 284
200 196 197 204 209 212 216 218 211 237 212 222 214 208 222 240 236 244 246 252 259 257 266 272 265 273 273 263 255 261 255 274 262 276 272 284 283 269 273 280 280 282 284 285
189 187 210 200 208 211 215 216 212 211 220 218 241 246 244 231 237 241 235 254 249 264 269 272 275 273 273 270 265 262 281 258 267 285 289 283 279 272 274 278 297 286 296 283
180 188 193 208 208 210 212 204 207 205 220 218 217 219 222 234 239 245 243 252 257 255 261 267 273 277 277 271 278 273 268 273 262 267 268 280 281 278 285 284 282 283 289 286
180 186 192 201 206 211 212 205 217 210 220 224 213 222 226 234 242 246 247 250 260 265 268 270 271 278 282 278 274 278 274 274 270 270 271 272 277 276 286 288 287 290 290 287
186 186 194 202 206 209 205 208 205 225 218 227 215 225 227 243 241 235 236 255 255 264 265 271 274 273 277 278 278 274 273 274 276 280 281 281 282 282 284 288 284 288 293 296
182 222 205 201 204 215 213 214 218 222 224 224 219 225 217 226 240 248 260 248 269 255 269 276 273 275 274 275 281 280 278 277 278 278 278 280 279 282 285 289 288 292 294 295
197 193 200 204 205 210 212 212 212 224 225 223 231 231 223 231 249 255 244 246 256 271 267 272 275 264 278 280 284 279 276 278 278 278 279 281 283 286 288 291 288 290 291 294
189 194 200 204 206 210 216 216 220 217 227 235 234 227 232 244 235 265 262 247 265 272 274 271 276 274 275 282 287 281 277 279 282 285 285 286 287 286 287 288 295 300 289 292
192 197 203 206 209 212 214 214 216 223 232 231 237 234 232 243 234 255 253 255 252 259 275 259 261 265 280 278 273 288 283 290 284 291 288 287 286 287 297 289 289 289 296 297
197 203 205 209 212 219 215 220 221 223 231 236 240 241 236 236 249 245 252 250 258 256 256 265 268 263 275 285 277 287 281 290 289 287 284 287 285 287 296 294 292 298 299 305
197 202 206 206 206 211 217 221 228 230 239 239 241 244 245 248 242 248 250 248 250 256 259 271 264 278 275 279 290 279 280 288 282 287 288 286 292 293 297 293 297 299 302 300
201 205 209 213 216 215 218 224 227 231 237 243 247 250 247 248 243 245 249 255 257 262 261 263 263 267 274 272 282 282 286 286 286 289 288 292 295 297 299 298 299 299 298 301
204 208 210 213 217 219 219 225 231 235 238 251 246 244 246 243 244 249 253 256 258 261 265 269 268 273 277 279 282 283 285 285 288 290 294 298 298 294 295 297 298 301 302 303
207 211 214 217 220 221 223 226 231 234 239 250 250 257 250 259 253 256 259 261 266 263 274 273 271 276 281 283 280 282 286 287 295 293 297 296 295 295 300 300 302 302 303 302
197 207 217 220 222 223 226 229 230 233 236 240 249 248 251 256 259 262 263 264 264 267 272 279 280 276 278 280 284 288 290 292 293 295 296 294 297 298 300 300 301 301 302 304
211 203 203 222 226 228 232 235 235 237 240 242 247 251 253 255 257 259 261 264 267 271 277 276 274 279 281 285 288 289 291 293 296 292 293 296 296 300 300 301 302 305 303 304
201 213 216 220 222 231 237 237 241 244 246 246 248 252 254 256 258 260 264 268 271 274 274 272 278 279 282 285 287 290 288 288 289 294 294 297 300 303 301 303 306 303 307 305
204 205 210 217 230 232 233 233 236 240 243 246 249 252 255 258 261 261 265 269 270 273 283 276 278 280 281 286 291 287 286 288 293 294 300 303 302 302 303 302 306 307 304 308
212 209 210 213 219 223 228 232 234 239 244 246 243 244 248 255 261 266 266 271 280 284 285 276 278 283 288 285 288 285 293 293 292 292 302 300 300 302 302 312 304 306 306 304
223 225 226 225 228 230 231 231 234 238 231 247 247 259 254 257 271 271 263 268 269 270 273 281 282 288 280 285 290 292 288 294 292 296 297 302 309 303 306 312 307 312 306 307
227 227 229 231 235 239 239 240 240 243 245 266 250 264 254 266 259 261 262 271 273 277 276 275 280 284 287 290 291 292 298 296 294 297 299 302 303 306 309 308 315 309 308 308
228 231 232 241 245 243 242 240 242 245 249 251 255 266 270 261 263 265 284 271 272 278 280 281 285 288 292 289 293 289 294 293 296 300 305 304 309 313 308 312 310 309 308 309
235 238 235 235 237 239 246 246 245 250 252 250 252 255 258 259 263 268 272 275 278 279 282 286 288 286 285 290 292 291 293 296 302 312 306 304 310 308 307 307 307 308 312 314